Regional Weather Roundup
Issued by NWS Albany, NY

Home | Current Version | Previous Version | Text Only | Print | Product List | Glossary On
Versions: 1 2 3 4 5 6 7 8 9 10 11 12 13 14 15 16 17 18 19 20 21 22 23 24 25 26 27 28 29 30 31 32 33 34 35 36 37 38 39 40 41 42 43 44 45 46 47 48 49 50
000
ASUS41 KALY 271610
RWRALY

NEW YORK STATE HOURLY WEATHER ROUNDUP
NATIONAL WEATHER SERVICE ALBANY NY
1100 AM EST THU NOV 27 2014

NOTE: "FAIR" INDICATES FEW OR NO CLOUDS BELOW 12,000 FEET WITH NO
SIGNIFICANT WEATHER AND/OR NO OBSTRUCTIONS TO VISIBILITY.

NYZ032-033-038>043-046>054-057>066-NYZ062>081-271700-
EAST


CITY           SKY/WX    TMP DP  RH WIND       PRES   REMARKS
ALBANY         CLOUDY    32  26  78 CALM      30.03R
GLENS FALLS    CLOUDY    31  23  72 NE9       30.01F WCI  23
POUGHKEEPSIE   CLOUDY    34  30  85 CALM      30.01S
NEWBURGH       LGT SNOW  32  30  93 NE5       30.00S VSB 1   WCI  27
MONTGOMERY     LGT SNOW  33  31  92 CALM      29.99S VSB 1
WHITE PLAINS   LGT SNOW  34  28  79 NW10      29.97S WCI  26
ISLIP          FLURRIES  38  30  73 NW6       29.97S WCI  33
NEW YORK CITY  LGT SNOW  36  32  87 NW8       30.00S FOG     WCI  29
CENTRAL PARK   LGT SNOW  35  31  85 VRB3      30.02F FOG
$$

NYZ005>009-017-018-044>046-055-056-271700-
CENTRAL


CITY           SKY/WX    TMP DP  RH WIND       PRES   REMARKS
FULTON         LGT SNOW  29  24  82 CALM      30.04S
SYRACUSE       LGT SNOW  29  26  89 NW3       30.04S FOG
ROME           LGT SNOW  29  27  92 W5        30.03F FOG     WCI  24
ELMIRA         CLOUDY    31  25  78 SW8       30.03R WCI  23
BINGHAMTON     LGT SNOW  27  24  89 VRB6      29.96S FOG     WCI  20
MONTICELLO     CLOUDY    28  27  93 NW6       29.96S WCI  22
$$

NYZ026>034-041>043-271700-
NORTH


CITY           SKY/WX    TMP DP  RH WIND       PRES   REMARKS
WATERTOWN      CLOUDY    31  20  63 N6        30.05S WCI  25
FORT DRUM      NOT AVBL
MASSENA        CLOUDY    31  19  61 N5        30.06S WCI  26
SARANAC LAKE   CLOUDY    24  18  77 NE3       29.92F
PLATTSBURGH    CLOUDY    29  23  78 N8        30.04R WCI  21
$$

NYZ001>004-010>016-019>021-271700-
WEST


CITY           SKY/WX    TMP DP  RH WIND       PRES   REMARKS
NIAGARA FALLS  PTSUNNY   30  24  78 S6        30.07S WCI  24
BUFFALO        LGT SNOW  30  25  81 SW3       30.07R
DUNKIRK        CLOUDY    33  23  66 CALM      30.08R
JAMESTOWN      CLOUDY    28  21  74 W5        30.02S WCI  23
WELLSVILLE     MOSUNNY   28  18  66 CALM      29.99S
ROCHESTER      CLOUDY    31  25  78 W6        30.07R WCI  25
PENN YAN       CLOUDY    30  24  78 VRB3      30.03R
$$

             KEY
       WCI = WIND CHILL INDEX
       VSB = VISIBILITY
       HX  = HEAT INDEX
$$


USA.gov is the U.S. government's official web portal to all federal, state and local government web resources and services.